| time (UTC) | temp F | wind direction | speed knots | gust knots | rain 1hr in | rain 24hr in | rain mn in | humidity % | barometer mb |
| 20260505111538 | 61 | 30 | 1.7 | 7.0 | 0.00 | 0.00 | 0.00 | 69 | 1015.3 |
| 20260505101524 | 59 | 155 | 0.0 | 3.5 | 0.00 | 0.00 | 0.00 | 72 | 1015.0 |
| 20260505100023 | 60 | 189 | 0.9 | 3.5 | 0.00 | 0.00 | 0.00 | 71 | 1014.8 |
| 20260505094527 | 60 | 214 | 0.9 | 3.5 | 0.00 | 0.00 | 0.00 | 70 | 1014.6 |
| 20260505093009 | 60 | 257 | 1.7 | 5.2 | 0.00 | 0.00 | 0.00 | 69 | 1014.6 |
| 20260505091516 | 61 | 316 | 2.6 | 9.6 | 0.00 | 0.00 | 0.00 | 69 | 1014.6 |
| 20260505090029 | 61 | 226 | 2.6 | 7.0 | 0.00 | 0.00 | 0.00 | 68 | 1014.4 |
| 20260505084530 | 61 | 288 | 1.7 | 6.1 | 0.00 | 0.00 | 0.00 | 68 | 1014.2 |
| 20260505083025 | 62 | 239 | 1.7 | 7.0 | 0.00 | 0.00 | 0.00 | 67 | 1014.3 |
| 20260505081510 | 62 | 234 | 2.6 | 7.8 | 0.00 | 0.00 | 0.00 | 67 | 1014.3 |
| 20260505080025 | 62 | 295 | 2.6 | 10.4 | 0.00 | 0.00 | 0.00 | 67 | 1014.2 |
| 20260505074521 | 62 | 300 | 2.6 | 8.7 | 0.00 | 0.00 | 0.00 | 68 | 1014.1 |
| 20260505073026 | 62 | 260 | 1.7 | 6.1 | 0.00 | 0.00 | 0.00 | 68 | 1014.0 |
| 20260505071508 | 62 | 196 | 0.9 | 6.1 | 0.00 | 0.00 | 0.00 | 68 | 1014.0 |
| 20260505070022 | 62 | 276 | 1.7 | 5.2 | 0.00 | 0.00 | 0.00 | 67 | 1013.9 |
| 20260505064522 | 63 | 232 | 1.7 | 11.3 | 0.00 | 0.00 | 0.00 | 66 | 1013.8 |
| 20260505063026 | 63 | 43 | 1.7 | 7.8 | 0.00 | 0.00 | 0.00 | 66 | 1013.8 |
| 20260505061524 | 64 | 265 | 1.7 | 7.8 | 0.00 | 0.00 | 0.00 | 65 | 1013.9 |
| 20260505060012 | 64 | 228 | 2.6 | 10.4 | 0.00 | 0.00 | 0.00 | 65 | 1013.9 |
| 20260505054522 | 64 | 274 | 3.5 | 9.6 | 0.00 | 0.00 | 0.00 | 65 | 1013.9 |
| 20260505053005 | 64 | 302 | 2.6 | 8.7 | 0.00 | 0.00 | 0.00 | 64 | 1014.0 |
| 20260505051507 | 64 | 200 | 2.6 | 8.7 | 0.00 | 0.00 | 0.00 | 64 | 1014.0 |
| 20260505041503 | 64 | 258 | 2.6 | 7.8 | 0.00 | 0.00 | 0.00 | 64 | 1013.8 |
| 20260505040018 | 65 | 1 | 1.7 | 8.7 | 0.00 | 0.00 | 0.00 | 63 | 1013.6 |
| 20260505034527 | 65 | 217 | 1.7 | 7.8 | 0.00 | 0.00 | 0.00 | 62 | 1013.5 |
| 20260505033020 | 65 | 239 | 0.9 | 5.2 | 0.00 | 0.00 | 0.00 | 60 | 1013.5 |
| 20260505031503 | 66 | 234 | 3.5 | 8.7 | 0.00 | 0.00 | 0.00 | 57 | 1013.5 |
| 20260505030014 | 66 | 180 | 1.7 | 9.6 | 0.00 | 0.00 | 0.00 | 55 | 1013.4 |
| 20260505024514 | 66 | 249 | 0.9 | 1.7 | 0.00 | 0.00 | 0.00 | 51 | 1013.3 |
| 20260505023014 | 66 | 228 | 0.0 | 1.7 | 0.00 | 0.00 | 0.00 | 49 | 1013.3 |
| 20260505021524 | 67 | 225 | 0.9 | 3.5 | 0.00 | 0.00 | 0.00 | 48 | 1013.1 |
| 20260505020012 | 67 | 229 | 0.9 | 2.6 | 0.00 | 0.00 | 0.00 | 48 | 1013.1 |
| 20260505014515 | 67 | 186 | 0.0 | 1.7 | 0.00 | 0.00 | 0.00 | 48 | 1012.9 |
| 20260505013017 | 66 | 256 | 0.0 | 2.6 | 0.00 | 0.00 | 0.00 | 50 | 1012.8 |
| 20260505011521 | 65 | 176 | 0.0 | 1.7 | 0.00 | 0.00 | 0.00 | 54 | 1012.8 |
| 20260505010027 | 67 | 224 | 0.0 | 1.7 | 0.00 | 0.00 | 0.00 | 50 | 1012.9 |
| 20260505004515 | 68 | 223 | 0.0 | 1.7 | 0.00 | 0.00 | 0.00 | 48 | 1012.7 |
| 20260505003017 | 69 | 238 | 0.0 | 1.7 | 0.00 | 0.00 | 0.00 | 46 | 1012.6 |
| 20260505001518 | 70 | 245 | 0.0 | 1.7 | 0.00 | 0.00 | 0.00 | 45 | 1012.4 |
| 20260505000038 | 71 | 227 | 0.0 | 1.7 | 0.00 | 0.00 | 0.00 | 43 | 1012.2 |
| 20260504234505 | 72 | 215 | 0.0 | 2.6 | 0.00 | 0.00 | 0.00 | 41 | 1012.3 |
| 20260504233002 | 74 | 231 | 0.9 | 3.5 | 0.00 | 0.00 | 0.00 | 38 | 1012.2 |
| 20260504231502 | 75 | 192 | 1.7 | 4.3 | 0.00 | 0.00 | 0.00 | 36 | 1012.1 |
| 20260504230002 | 76 | 235 | 0.9 | 5.2 | 0.00 | 0.00 | 0.00 | 36 | 1012.0 |
| 20260504224502 | 76 | 268 | 0.9 | 4.3 | 0.00 | 0.00 | 0.00 | 35 | 1011.8 |
| 20260504223004 | 77 | 207 | 0.9 | 7.0 | 0.00 | 0.00 | 0.00 | 34 | 1011.9 |
| 20260504221503 | 78 | 240 | 1.7 | 9.6 | 0.00 | 0.00 | 0.00 | 33 | 1011.9 |
| 20260504220009 | 77 | 16 | 0.9 | 7.8 | 0.00 | 0.00 | 0.00 | 33 | 1011.9 |
| 20260504214504 | 78 | 273 | 1.7 | 6.1 | 0.00 | 0.00 | 0.00 | 32 | 1011.9 |
| 20260504213005 | 79 | 280 | 0.9 | 9.6 | 0.00 | 0.00 | 0.00 | 33 | 1012.0 |
| 20260504211505 | 78 | 290 | 3.5 | 10.4 | 0.00 | 0.00 | 0.00 | 31 | 1011.9 |
| 20260504210004 | 79 | 270 | 2.6 | 7.8 | 0.00 | 0.00 | 0.00 | 31 | 1012.0 |
| 20260504204503 | 80 | 177 | 1.7 | 6.1 | 0.00 | 0.00 | 0.00 | 31 | 1012.0 |
| 20260504203003 | 80 | 127 | 0.9 | 7.0 | 0.00 | 0.00 | 0.00 | 31 | 1012.0 |
| 20260504201503 | 79 | 1 | 1.7 | 7.0 | 0.00 | 0.00 | 0.00 | 30 | 1012.1 |
| 20260504200005 | 78 | 237 | 1.7 | 7.8 | 0.00 | 0.00 | 0.00 | 30 | 1012.3 |
| 20260504194503 | 78 | 236 | 1.7 | 7.0 | 0.00 | 0.00 | 0.00 | 29 | 1012.5 |
| 20260504193008 | 77 | 289 | 2.6 | 7.8 | 0.00 | 0.00 | 0.00 | 31 | 1013.1 |
| 20260504191503 | 76 | 251 | 2.6 | 8.7 | 0.00 | 0.00 | 0.00 | 28 | 1013.3 |
| 20260504190006 | 76 | 252 | 3.5 | 8.7 | 0.00 | 0.00 | 0.00 | 27 | 1013.4 |
| 20260504184506 | 77 | 245 | 3.5 | 6.1 | 0.00 | 0.00 | 0.00 | 30 | 1013.6 |
| 20260504183010 | 76 | 260 | 1.7 | 6.1 | 0.00 | 0.00 | 0.00 | 32 | 1013.7 |
| 20260504181503 | 74 | 360 | 1.7 | 6.1 | 0.00 | 0.00 | 0.00 | 30 | 1014.0 |
| 20260504180011 | 74 | 257 | 1.7 | 5.2 | 0.00 | 0.00 | 0.00 | 33 | 1014.2 |
| 20260504174505 | 75 | 224 | 0.0 | 6.1 | 0.00 | 0.00 | 0.00 | 31 | 1014.2 |
| 20260504173010 | 76 | 311 | 1.7 | 5.2 | 0.00 | 0.00 | 0.00 | 29 | 1014.4 |
| 20260504171507 | 74 | 337 | 1.7 | 5.2 | 0.00 | 0.00 | 0.00 | 32 | 1014.5 |